Year,Month,Day,Hour,Minute,Value (Times are PST for temperature in C)
2017,06,24,00,00,17.00
2017,06,24,00,01,17.00
2017,06,24,00,02,17.10
2017,06,24,00,03,17.10
2017,06,24,00,04,17.20
2017,06,24,00,05,17.20
2017,06,24,00,06,17.30
2017,06,24,00,07,17.40
2017,06,24,00,08,17.50
2017,06,24,00,09,17.60
2017,06,24,00,10,17.70
2017,06,24,00,11,17.70
2017,06,24,00,12,17.80
2017,06,24,00,13,17.80
2017,06,24,00,14,17.80
2017,06,24,00,15,17.90
2017,06,24,00,16,18.00
2017,06,24,00,17,18.10
2017,06,24,00,18,18.10
2017,06,24,00,19,18.20
2017,06,24,00,20,18.20
2017,06,24,00,21,18.20
2017,06,24,00,22,18.20
2017,06,24,00,23,18.30
2017,06,24,00,24,18.40
2017,06,24,00,25,18.40
2017,06,24,00,26,18.50
2017,06,24,00,27,18.50
2017,06,24,00,28,18.60
2017,06,24,00,29,18.60
2017,06,24,00,30,18.70
2017,06,24,00,31,18.70
2017,06,24,00,32,18.70
2017,06,24,00,33,18.70
2017,06,24,00,34,18.80
2017,06,24,00,35,18.80
2017,06,24,00,36,18.80
2017,06,24,00,37,18.80
2017,06,24,00,38,18.80
2017,06,24,00,39,18.80
2017,06,24,00,40,18.80
2017,06,24,00,41,18.70
2017,06,24,00,42,18.70
2017,06,24,00,43,18.70
2017,06,24,00,44,18.70
2017,06,24,00,45,18.60
2017,06,24,00,46,18.60
2017,06,24,00,47,18.60
2017,06,24,00,48,18.60
2017,06,24,00,49,18.60
2017,06,24,00,50,18.60
2017,06,24,00,51,18.60
2017,06,24,00,52,18.60
2017,06,24,00,53,18.60
2017,06,24,00,54,18.60
2017,06,24,00,55,18.50
2017,06,24,00,56,18.50
2017,06,24,00,57,18.40
2017,06,24,00,58,18.40
2017,06,24,00,59,18.30
2017,06,24,01,00,18.30
2017,06,24,01,01,18.20
2017,06,24,01,02,18.20
2017,06,24,01,03,18.20
2017,06,24,01,04,18.20
2017,06,24,01,05,18.20
2017,06,24,01,06,18.10
2017,06,24,01,07,18.10
2017,06,24,01,08,18.20
2017,06,24,01,09,18.20
2017,06,24,01,10,18.20
2017,06,24,01,11,18.30
2017,06,24,01,12,18.30
2017,06,24,01,13,18.30
2017,06,24,01,14,18.30
2017,06,24,01,15,18.40
2017,06,24,01,16,18.40
2017,06,24,01,17,18.40
2017,06,24,01,18,18.40
2017,06,24,01,19,18.40
2017,06,24,01,20,18.40
2017,06,24,01,21,18.40
2017,06,24,01,22,18.40
2017,06,24,01,23,18.50
2017,06,24,01,24,18.50
2017,06,24,01,25,18.50
2017,06,24,01,26,18.50
2017,06,24,01,27,18.50
2017,06,24,01,28,18.50
2017,06,24,01,29,18.50
2017,06,24,01,30,18.40
2017,06,24,01,31,18.40
2017,06,24,01,32,18.40
2017,06,24,01,33,18.30
2017,06,24,01,34,18.30
2017,06,24,01,35,18.30
2017,06,24,01,36,18.30
2017,06,24,01,37,18.20
2017,06,24,01,38,18.20
2017,06,24,01,39,18.20
2017,06,24,01,40,18.20
2017,06,24,01,41,18.20
2017,06,24,01,42,18.20
2017,06,24,01,43,18.20
2017,06,24,01,44,18.30
2017,06,24,01,45,18.20
2017,06,24,01,46,18.20
2017,06,24,01,47,18.20
2017,06,24,01,48,18.20
2017,06,24,01,49,18.20
2017,06,24,01,50,18.20
2017,06,24,01,51,18.20
2017,06,24,01,52,18.20
2017,06,24,01,53,18.20
2017,06,24,01,54,18.20
2017,06,24,01,55,18.20
2017,06,24,01,56,18.20
2017,06,24,01,57,18.30
2017,06,24,01,58,18.30
2017,06,24,01,59,18.30
2017,06,24,02,00,18.30
2017,06,24,02,01,18.30
2017,06,24,02,02,18.30
2017,06,24,02,03,18.30
2017,06,24,02,04,18.30
2017,06,24,02,05,18.30
2017,06,24,02,06,18.30
2017,06,24,02,07,18.30
2017,06,24,02,08,18.40
2017,06,24,02,09,18.40
2017,06,24,02,10,18.40
2017,06,24,02,11,18.40
2017,06,24,02,12,18.50
2017,06,24,02,13,18.50
2017,06,24,02,14,18.50
2017,06,24,02,15,18.50
2017,06,24,02,16,18.50
2017,06,24,02,17,18.60
2017,06,24,02,18,18.60
2017,06,24,02,19,18.60
2017,06,24,02,20,18.70
2017,06,24,02,21,18.70
2017,06,24,02,22,18.70
2017,06,24,02,23,18.80
2017,06,24,02,24,18.80
2017,06,24,02,25,18.80
2017,06,24,02,26,18.80
2017,06,24,02,27,18.80
2017,06,24,02,28,18.80
2017,06,24,02,29,18.80
2017,06,24,02,30,18.80
2017,06,24,02,31,18.80
2017,06,24,02,32,18.80
2017,06,24,02,33,18.80
2017,06,24,02,34,18.80
2017,06,24,02,35,18.90
2017,06,24,02,36,18.90
2017,06,24,02,37,18.90
2017,06,24,02,38,18.90
2017,06,24,02,39,18.90
2017,06,24,02,40,19.00
2017,06,24,02,41,19.00
2017,06,24,02,42,19.00
2017,06,24,02,43,19.00
2017,06,24,02,44,19.00
2017,06,24,02,45,19.00
2017,06,24,02,46,19.00
2017,06,24,02,47,19.00
2017,06,24,02,48,19.10
2017,06,24,02,49,19.10
2017,06,24,02,50,19.10
2017,06,24,02,51,19.10
2017,06,24,02,52,19.10
2017,06,24,02,53,19.00
2017,06,24,02,54,19.00
2017,06,24,02,55,19.00
2017,06,24,02,56,19.00
2017,06,24,02,57,18.90
2017,06,24,02,58,18.90
2017,06,24,02,59,18.90
2017,06,24,03,00,18.90
2017,06,24,03,01,18.90
2017,06,24,03,02,18.80
2017,06,24,03,03,18.80
2017,06,24,03,06,18.80
2017,06,24,03,07,18.80
2017,06,24,03,08,18.80
2017,06,24,03,09,18.80
2017,06,24,03,10,18.80
2017,06,24,03,11,18.90
2017,06,24,03,12,18.90
2017,06,24,03,13,18.90
2017,06,24,03,14,18.90
2017,06,24,03,15,18.90
2017,06,24,03,16,18.90
2017,06,24,03,17,18.90
2017,06,24,03,18,18.90
2017,06,24,03,19,18.90
2017,06,24,03,20,18.90
2017,06,24,03,21,18.80
2017,06,24,03,22,18.80
2017,06,24,03,23,18.80
2017,06,24,03,24,18.80
2017,06,24,03,25,18.80
2017,06,24,03,26,18.80
2017,06,24,03,27,18.80
2017,06,24,03,28,18.80
2017,06,24,03,29,18.80
2017,06,24,03,30,18.80
2017,06,24,03,31,18.70
2017,06,24,03,32,18.70
2017,06,24,03,33,18.70
2017,06,24,03,34,18.70
2017,06,24,03,35,18.60
2017,06,24,03,36,18.60
2017,06,24,03,37,18.60
2017,06,24,03,38,18.60
2017,06,24,03,39,18.60
2017,06,24,03,40,18.60
2017,06,24,03,41,18.60
2017,06,24,03,42,18.60
2017,06,24,03,43,18.60
2017,06,24,03,44,18.60
2017,06,24,03,45,18.60
2017,06,24,03,46,18.60
2017,06,24,03,47,18.50
2017,06,24,03,48,18.60
2017,06,24,03,49,18.60
2017,06,24,03,50,18.60
2017,06,24,03,51,18.60
2017,06,24,03,52,18.60
2017,06,24,03,53,18.60
2017,06,24,03,54,18.50
2017,06,24,03,55,18.50
2017,06,24,03,56,18.60
2017,06,24,03,57,18.60
2017,06,24,03,58,18.60
2017,06,24,03,59,18.70
2017,06,24,04,00,18.70
2017,06,24,04,01,18.70
2017,06,24,04,02,18.70
2017,06,24,04,03,18.80
2017,06,24,04,04,18.80
2017,06,24,04,05,18.90
2017,06,24,04,06,18.90
2017,06,24,04,07,18.90
2017,06,24,04,08,18.90
2017,06,24,04,09,18.90
2017,06,24,04,10,18.90
2017,06,24,04,11,18.90
2017,06,24,04,12,18.90
2017,06,24,04,13,18.90
2017,06,24,04,14,18.80
2017,06,24,04,15,18.80
2017,06,24,04,16,18.80
2017,06,24,04,17,18.80
2017,06,24,04,18,18.80
2017,06,24,04,19,18.80
2017,06,24,04,20,18.80
2017,06,24,04,21,18.70
2017,06,24,04,22,18.70
2017,06,24,04,23,18.70
2017,06,24,04,24,18.70
2017,06,24,04,25,18.70
2017,06,24,04,26,18.70
2017,06,24,04,27,18.60
2017,06,24,04,28,18.60
2017,06,24,04,29,18.60
2017,06,24,04,30,18.50
2017,06,24,04,31,18.50
2017,06,24,04,32,18.40
2017,06,24,04,33,18.40
2017,06,24,04,34,18.40
2017,06,24,04,35,18.40
2017,06,24,04,36,18.40
2017,06,24,04,37,18.40
2017,06,24,04,38,18.30
2017,06,24,04,39,18.30
2017,06,24,04,40,18.30
2017,06,24,04,41,18.30
2017,06,24,04,42,18.30
2017,06,24,04,43,18.30
2017,06,24,04,44,18.30
2017,06,24,04,45,18.30
2017,06,24,04,46,18.30
2017,06,24,04,47,18.30
2017,06,24,04,48,18.30
2017,06,24,04,49,18.30
2017,06,24,04,50,18.30
2017,06,24,04,51,18.30
2017,06,24,04,52,18.30
2017,06,24,04,53,18.20
2017,06,24,04,54,18.20
2017,06,24,04,55,18.20
2017,06,24,04,56,18.20
2017,06,24,04,57,18.20
2017,06,24,04,58,18.10
2017,06,24,04,59,18.10
2017,06,24,05,00,18.10
2017,06,24,05,01,18.00
2017,06,24,05,02,17.90
2017,06,24,05,03,17.90
2017,06,24,05,04,17.80
2017,06,24,05,05,17.80
2017,06,24,05,06,17.70
2017,06,24,05,07,17.70
2017,06,24,05,08,17.70
2017,06,24,05,09,17.60
2017,06,24,05,10,17.60
2017,06,24,05,11,17.50
2017,06,24,05,12,17.50
2017,06,24,05,13,17.50
2017,06,24,05,14,17.40
2017,06,24,05,15,17.40
2017,06,24,05,16,17.40
2017,06,24,05,17,17.40
2017,06,24,05,18,17.30
2017,06,24,05,19,17.30
2017,06,24,05,20,17.30
2017,06,24,05,21,17.30
2017,06,24,05,22,17.30
2017,06,24,05,23,17.30
2017,06,24,05,24,17.30
2017,06,24,05,25,17.20
2017,06,24,05,26,17.20
2017,06,24,05,27,17.20
2017,06,24,05,28,17.20
2017,06,24,05,29,17.20
2017,06,24,05,30,17.30
2017,06,24,05,31,17.30
2017,06,24,05,32,17.30
2017,06,24,05,33,17.30
2017,06,24,05,34,17.30
2017,06,24,05,35,17.30
2017,06,24,05,36,17.30
2017,06,24,05,37,17.30
2017,06,24,05,38,17.30
2017,06,24,05,39,17.30
2017,06,24,05,40,17.30
2017,06,24,05,41,17.30
2017,06,24,05,42,17.30
2017,06,24,05,43,17.30
2017,06,24,05,44,17.30
2017,06,24,05,45,17.30
2017,06,24,05,46,17.30
2017,06,24,05,47,17.40
2017,06,24,05,48,17.40
2017,06,24,05,49,17.40
2017,06,24,05,50,17.40
2017,06,24,05,51,17.40
2017,06,24,05,52,17.40
2017,06,24,05,53,17.40
2017,06,24,05,54,17.40
2017,06,24,05,55,17.40
2017,06,24,05,56,17.50
2017,06,24,05,57,17.50
2017,06,24,05,58,17.50
2017,06,24,05,59,17.60
2017,06,24,06,00,17.60
2017,06,24,06,01,17.60
2017,06,24,06,02,17.50
2017,06,24,06,03,17.50
2017,06,24,06,04,17.50
2017,06,24,06,05,17.50
2017,06,24,06,06,17.50
2017,06,24,06,07,17.40
2017,06,24,06,08,17.40
2017,06,24,06,09,17.40
2017,06,24,06,10,17.40
2017,06,24,06,11,17.50
2017,06,24,06,12,17.50
2017,06,24,06,13,17.50
2017,06,24,06,14,17.60
2017,06,24,06,15,17.60
2017,06,24,06,16,17.60
2017,06,24,06,17,17.60
2017,06,24,06,18,17.70
2017,06,24,06,19,17.70
2017,06,24,06,20,17.70
2017,06,24,06,21,17.70
2017,06,24,06,22,17.70
2017,06,24,06,23,17.70
2017,06,24,06,24,17.70
2017,06,24,06,25,17.70
2017,06,24,06,26,17.70
2017,06,24,06,27,17.70
2017,06,24,06,28,17.70
2017,06,24,06,29,17.70
2017,06,24,06,30,17.70
2017,06,24,06,31,17.70
2017,06,24,06,32,17.70
2017,06,24,06,33,17.70
2017,06,24,06,34,17.70
2017,06,24,06,35,17.80
2017,06,24,06,36,17.80
2017,06,24,06,37,17.80
2017,06,24,06,38,17.80
2017,06,24,06,39,17.90
2017,06,24,06,40,17.90
2017,06,24,06,41,17.90
2017,06,24,06,42,18.00
2017,06,24,06,43,18.00
2017,06,24,06,44,18.10
2017,06,24,06,45,18.10
2017,06,24,06,46,18.10
2017,06,24,06,47,18.10
2017,06,24,06,48,18.20
2017,06,24,06,49,18.20
2017,06,24,06,50,18.20
2017,06,24,06,51,18.20
2017,06,24,06,52,18.20
2017,06,24,06,53,18.20
2017,06,24,06,54,18.20
2017,06,24,06,55,18.30
2017,06,24,06,56,18.30
2017,06,24,06,57,18.30
2017,06,24,06,58,18.40
2017,06,24,06,59,18.40
2017,06,24,07,00,18.50
2017,06,24,07,01,18.50
2017,06,24,07,02,18.60
2017,06,24,07,03,18.60
2017,06,24,07,04,18.70
2017,06,24,07,05,18.70
2017,06,24,07,06,18.80
2017,06,24,07,07,18.80
2017,06,24,07,08,18.80
2017,06,24,07,09,18.80
2017,06,24,07,10,18.80
2017,06,24,07,11,18.80
2017,06,24,07,12,18.80
2017,06,24,07,13,18.90
2017,06,24,07,14,18.90
2017,06,24,07,15,19.00
2017,06,24,07,16,19.10
2017,06,24,07,17,19.10
2017,06,24,07,18,19.10
2017,06,24,07,19,19.20
2017,06,24,07,20,19.30
2017,06,24,07,21,19.40
2017,06,24,07,22,19.50
2017,06,24,07,23,19.60
2017,06,24,07,24,19.60
2017,06,24,07,25,19.60
2017,06,24,07,26,19.70
2017,06,24,07,27,19.70
2017,06,24,07,28,19.80
2017,06,24,07,29,19.80
2017,06,24,07,30,19.80
2017,06,24,07,31,19.90
2017,06,24,07,32,19.90
2017,06,24,07,33,19.90
2017,06,24,07,34,20.00
2017,06,24,07,35,20.00
2017,06,24,07,36,20.10
2017,06,24,07,37,20.10
2017,06,24,07,38,20.20
2017,06,24,07,39,20.20
2017,06,24,07,40,20.20
2017,06,24,07,41,20.30
2017,06,24,07,42,20.30
2017,06,24,07,43,20.30
2017,06,24,07,44,20.30
2017,06,24,07,45,20.30
2017,06,24,07,46,20.40
2017,06,24,07,47,20.40
2017,06,24,07,48,20.50
2017,06,24,07,49,20.50
2017,06,24,07,50,20.50
2017,06,24,07,51,20.50
2017,06,24,07,52,20.60
2017,06,24,07,53,20.60
2017,06,24,07,54,20.60
2017,06,24,07,55,20.60
2017,06,24,07,56,20.60
2017,06,24,07,57,20.60
2017,06,24,07,58,20.60
2017,06,24,07,59,20.70
2017,06,24,08,00,20.70
2017,06,24,08,01,20.70
2017,06,24,08,02,20.70
2017,06,24,08,03,20.70
2017,06,24,08,04,20.70
2017,06,24,08,05,20.70
2017,06,24,08,06,20.70
2017,06,24,08,07,20.70
2017,06,24,08,08,20.70
2017,06,24,08,09,20.70
2017,06,24,08,10,20.80
2017,06,24,08,11,20.80
2017,06,24,08,12,20.80
2017,06,24,08,13,20.80
2017,06,24,08,14,20.80
2017,06,24,08,15,20.80
2017,06,24,08,16,20.80
2017,06,24,08,17,20.80
2017,06,24,08,18,20.80
2017,06,24,08,19,20.90
2017,06,24,08,20,20.90
2017,06,24,08,21,20.90
2017,06,24,08,22,20.90
2017,06,24,08,23,20.90
2017,06,24,08,24,20.90
2017,06,24,08,25,20.90
2017,06,24,08,26,21.00
2017,06,24,08,27,21.00
2017,06,24,08,28,21.00
2017,06,24,08,29,21.10
2017,06,24,08,30,21.10
2017,06,24,08,31,21.10
2017,06,24,08,32,21.10
2017,06,24,08,33,21.20
2017,06,24,08,34,21.20
2017,06,24,08,35,21.20
2017,06,24,08,36,21.30
2017,06,24,08,37,21.30
2017,06,24,08,38,21.30
2017,06,24,08,39,21.30
2017,06,24,08,40,21.30
2017,06,24,08,41,21.40
2017,06,24,08,42,21.40
2017,06,24,08,43,21.40
2017,06,24,08,44,21.40
2017,06,24,08,45,21.40
2017,06,24,08,46,21.50
2017,06,24,08,47,21.50
2017,06,24,08,48,21.50
2017,06,24,08,49,21.60
2017,06,24,08,50,21.60
2017,06,24,08,51,21.60
2017,06,24,08,52,21.60
2017,06,24,08,53,21.60
2017,06,24,08,54,21.60
2017,06,24,08,55,21.60
2017,06,24,08,56,21.60
2017,06,24,08,57,21.60
2017,06,24,08,58,21.70
2017,06,24,08,59,21.70
2017,06,24,09,00,21.70
2017,06,24,09,01,21.80
2017,06,24,09,02,21.80
2017,06,24,09,03,21.80
2017,06,24,09,04,21.90
2017,06,24,09,05,21.90
2017,06,24,09,06,21.90
2017,06,24,09,07,21.90
2017,06,24,09,08,22.00
2017,06,24,09,09,22.10
2017,06,24,09,10,22.10
2017,06,24,09,11,22.20
2017,06,24,09,12,22.30
2017,06,24,09,13,22.30
2017,06,24,09,14,22.40
2017,06,24,09,15,22.40
2017,06,24,09,16,22.50
2017,06,24,09,17,22.50
2017,06,24,09,18,22.60
2017,06,24,09,19,22.70
2017,06,24,09,20,22.70
2017,06,24,09,21,22.70
2017,06,24,09,22,22.70
2017,06,24,09,23,22.70
2017,06,24,09,24,22.70
2017,06,24,09,25,22.70
2017,06,24,09,26,22.70
2017,06,24,09,27,22.70
2017,06,24,09,28,22.70
2017,06,24,09,29,22.70
2017,06,24,09,30,22.80
2017,06,24,09,31,22.80
2017,06,24,09,32,22.90
2017,06,24,09,33,22.90
2017,06,24,09,34,22.90
2017,06,24,09,35,23.00
2017,06,24,09,36,23.10
2017,06,24,09,37,23.10
2017,06,24,09,38,23.20
2017,06,24,09,39,23.30
2017,06,24,09,40,23.30
2017,06,24,09,41,23.30
2017,06,24,09,42,23.40
2017,06,24,09,43,23.40
2017,06,24,09,44,23.30
2017,06,24,09,45,23.30
2017,06,24,09,46,23.30
2017,06,24,09,47,23.30
2017,06,24,09,48,23.40
2017,06,24,09,49,23.40
2017,06,24,09,50,23.50
2017,06,24,09,51,23.60
2017,06,24,09,52,23.60
2017,06,24,09,53,23.70
2017,06,24,09,54,23.70
2017,06,24,09,55,23.70
2017,06,24,09,56,23.80
2017,06,24,09,57,23.80
2017,06,24,09,58,23.80
2017,06,24,09,59,23.90
2017,06,24,10,00,23.90
2017,06,24,10,01,23.90
2017,06,24,10,02,24.00
2017,06,24,10,03,24.00
2017,06,24,10,04,24.10
2017,06,24,10,05,24.20
2017,06,24,10,06,24.20
2017,06,24,10,07,24.20
2017,06,24,10,08,24.20
2017,06,24,10,09,24.20
2017,06,24,10,10,24.20
2017,06,24,10,11,24.30
2017,06,24,10,12,24.40
2017,06,24,10,13,24.40
2017,06,24,10,14,24.40
2017,06,24,10,15,24.30
2017,06,24,10,16,24.30
2017,06,24,10,17,24.40
2017,06,24,10,18,24.30
2017,06,24,10,19,24.40
2017,06,24,10,20,24.40
2017,06,24,10,21,24.40
2017,06,24,10,22,24.40
2017,06,24,10,23,24.40
2017,06,24,10,24,24.40
2017,06,24,10,25,24.50
2017,06,24,10,26,24.50
2017,06,24,10,27,24.50
2017,06,24,10,28,24.50
2017,06,24,10,29,24.60
2017,06,24,10,30,24.70
2017,06,24,10,31,24.80
2017,06,24,10,32,24.80
2017,06,24,10,33,24.90
2017,06,24,10,34,24.90
2017,06,24,10,35,25.00
2017,06,24,10,36,25.20
2017,06,24,10,37,25.20
2017,06,24,10,38,25.30
2017,06,24,10,39,25.40
2017,06,24,10,40,25.50
2017,06,24,10,41,25.60
2017,06,24,10,42,25.60
2017,06,24,10,43,25.60
2017,06,24,10,44,25.70
2017,06,24,10,45,25.70
2017,06,24,10,46,25.80
2017,06,24,10,47,25.80
2017,06,24,10,48,25.80
2017,06,24,10,49,25.80
2017,06,24,10,50,25.70
2017,06,24,10,51,25.70
2017,06,24,10,52,25.70
2017,06,24,10,53,25.60
2017,06,24,10,54,25.50
2017,06,24,10,55,25.50
2017,06,24,10,56,25.60
2017,06,24,10,57,25.60
2017,06,24,10,58,25.60
2017,06,24,10,59,25.60
2017,06,24,11,00,25.60
2017,06,24,11,01,25.50
2017,06,24,11,02,25.60
2017,06,24,11,03,25.60
2017,06,24,11,04,25.60
2017,06,24,11,05,25.60
2017,06,24,11,06,25.70
2017,06,24,11,07,25.80
2017,06,24,11,08,25.90
2017,06,24,11,09,25.90
2017,06,24,11,10,26.00
2017,06,24,11,11,26.10
2017,06,24,11,12,26.10
2017,06,24,11,13,26.10
2017,06,24,11,14,26.20
2017,06,24,11,15,26.30
2017,06,24,11,16,26.30
2017,06,24,11,17,26.40
2017,06,24,11,18,26.40
2017,06,24,11,19,26.50
2017,06,24,11,20,26.60
2017,06,24,11,21,26.70
2017,06,24,11,22,26.70
2017,06,24,11,23,26.60
2017,06,24,11,24,26.60
2017,06,24,11,25,26.70
2017,06,24,11,26,26.70
2017,06,24,11,27,26.80
2017,06,24,11,28,26.90
2017,06,24,11,29,26.90
2017,06,24,11,30,27.00
2017,06,24,11,31,27.00
2017,06,24,11,32,26.90
2017,06,24,11,33,26.90
2017,06,24,11,34,26.80
2017,06,24,11,35,26.90
2017,06,24,11,36,26.90
2017,06,24,11,37,26.90
2017,06,24,11,38,26.90
2017,06,24,11,39,27.00
2017,06,24,11,40,27.00
2017,06,24,11,41,27.10
2017,06,24,11,42,27.10
2017,06,24,11,43,27.20
2017,06,24,11,44,27.30
2017,06,24,11,45,27.30
2017,06,24,11,46,27.30
2017,06,24,11,47,27.30
2017,06,24,11,48,27.30
2017,06,24,11,49,27.30
2017,06,24,11,50,27.30
2017,06,24,11,51,27.30
2017,06,24,11,52,27.20
2017,06,24,11,53,27.20
2017,06,24,11,54,27.30
2017,06,24,11,55,27.50
2017,06,24,11,56,27.50
2017,06,24,11,57,27.60
2017,06,24,11,58,27.60
2017,06,24,11,59,27.60
2017,06,24,12,00,27.60
2017,06,24,12,01,27.60
2017,06,24,12,02,27.60
2017,06,24,12,03,27.50
2017,06,24,12,04,27.50
2017,06,24,12,05,27.50
2017,06,24,12,06,27.50
2017,06,24,12,07,27.40
2017,06,24,12,08,27.40
2017,06,24,12,09,27.40
2017,06,24,12,10,27.40
2017,06,24,12,11,27.30
2017,06,24,12,12,27.30
2017,06,24,12,13,27.30
2017,06,24,12,14,27.30
2017,06,24,12,15,27.30
2017,06,24,12,16,27.50
2017,06,24,12,17,27.60
2017,06,24,12,18,27.70
2017,06,24,12,19,27.70
2017,06,24,12,20,27.70
2017,06,24,12,21,27.80
2017,06,24,12,22,27.80
2017,06,24,12,23,27.80
2017,06,24,12,24,27.70
2017,06,24,12,25,27.60
2017,06,24,12,26,27.70
2017,06,24,12,27,27.70
2017,06,24,12,28,27.80
2017,06,24,12,29,27.70
2017,06,24,12,30,27.70
2017,06,24,12,31,27.70
2017,06,24,12,32,27.70
2017,06,24,12,33,27.80
2017,06,24,12,34,27.90
2017,06,24,12,35,27.90
2017,06,24,12,36,28.00
2017,06,24,12,37,28.10
2017,06,24,12,38,28.20
2017,06,24,12,39,28.10
2017,06,24,12,40,28.10
2017,06,24,12,41,28.00
2017,06,24,12,42,28.00
2017,06,24,12,43,28.00
2017,06,24,12,44,28.10
2017,06,24,12,45,28.20
2017,06,24,12,46,28.20
2017,06,24,12,47,28.30
2017,06,24,12,48,28.50
2017,06,24,12,49,28.50
2017,06,24,12,50,28.50
2017,06,24,12,51,28.40
2017,06,24,12,52,28.40
2017,06,24,12,53,28.50
2017,06,24,12,54,28.60
2017,06,24,12,55,28.70
2017,06,24,12,56,28.70
2017,06,24,12,57,28.70
2017,06,24,12,58,28.80
2017,06,24,12,59,28.80
2017,06,24,13,00,28.80
2017,06,24,13,01,28.70
2017,06,24,13,02,28.70
2017,06,24,13,03,28.70
2017,06,24,13,04,28.70
2017,06,24,13,05,28.70
2017,06,24,13,06,28.80
2017,06,24,13,07,28.80
2017,06,24,13,08,28.80
2017,06,24,13,09,28.80
2017,06,24,13,10,28.80
2017,06,24,13,11,28.70
2017,06,24,13,12,28.70
2017,06,24,13,13,28.60
2017,06,24,13,14,28.60
2017,06,24,13,15,28.60
2017,06,24,13,16,28.60
2017,06,24,13,17,28.70
2017,06,24,13,18,28.70
2017,06,24,13,19,28.80
2017,06,24,13,20,28.90
2017,06,24,13,21,28.90
2017,06,24,13,22,29.00
2017,06,24,13,23,29.10
2017,06,24,13,24,29.20
2017,06,24,13,25,29.20
2017,06,24,13,26,29.20
2017,06,24,13,27,29.20
2017,06,24,13,28,29.20
2017,06,24,13,29,29.30
2017,06,24,13,30,29.30
2017,06,24,13,31,29.30
2017,06,24,13,32,29.30
2017,06,24,13,33,29.30
2017,06,24,13,34,29.30
2017,06,24,13,35,29.40
2017,06,24,13,36,29.40
2017,06,24,13,37,29.40
2017,06,24,13,38,29.40
2017,06,24,13,39,29.40
2017,06,24,13,40,29.40
2017,06,24,13,41,29.40
2017,06,24,13,42,29.40
2017,06,24,13,43,29.40
2017,06,24,13,44,29.40
2017,06,24,13,45,29.50
2017,06,24,13,46,29.60
2017,06,24,13,47,29.70
2017,06,24,13,48,29.70
2017,06,24,13,49,29.80
2017,06,24,13,50,29.80
2017,06,24,13,51,29.70
2017,06,24,13,52,29.70
2017,06,24,13,53,29.70
2017,06,24,13,54,29.70
2017,06,24,13,55,29.70
2017,06,24,13,56,29.60
2017,06,24,13,57,29.50
2017,06,24,13,58,29.40
2017,06,24,13,59,29.30
2017,06,24,14,00,29.30
2017,06,24,14,01,29.30
2017,06,24,14,02,29.30
2017,06,24,14,03,29.30
2017,06,24,14,04,29.30
2017,06,24,14,05,29.30
2017,06,24,14,06,29.30
2017,06,24,14,07,29.40
2017,06,24,14,08,29.50
2017,06,24,14,09,29.50
2017,06,24,14,10,29.70
2017,06,24,14,11,29.70
2017,06,24,14,12,29.80
2017,06,24,14,13,29.80
2017,06,24,14,14,29.80
2017,06,24,14,15,29.80
2017,06,24,14,16,29.80
2017,06,24,14,17,29.80
2017,06,24,14,18,29.90
2017,06,24,14,19,30.00
2017,06,24,14,20,30.10
2017,06,24,14,21,30.20
2017,06,24,14,22,30.20
2017,06,24,14,23,30.20
2017,06,24,14,24,30.20
2017,06,24,14,25,30.20
2017,06,24,14,26,30.20
2017,06,24,14,27,30.30
2017,06,24,14,28,30.30
2017,06,24,14,29,30.40
2017,06,24,14,30,30.30
2017,06,24,14,31,30.20
2017,06,24,14,32,30.10
2017,06,24,14,33,30.10
2017,06,24,14,34,30.00
2017,06,24,14,35,29.80
2017,06,24,14,36,29.70
2017,06,24,14,37,29.70
2017,06,24,14,38,29.70
2017,06,24,14,39,29.80
2017,06,24,14,40,29.90
2017,06,24,14,41,29.90
2017,06,24,14,42,30.00
2017,06,24,14,43,30.10
2017,06,24,14,44,30.10
2017,06,24,14,45,30.10
2017,06,24,14,46,30.20
2017,06,24,14,47,30.20
2017,06,24,14,48,30.20
2017,06,24,14,49,30.10
2017,06,24,14,50,30.10
2017,06,24,14,51,30.10
2017,06,24,14,52,30.00
2017,06,24,14,53,29.90
2017,06,24,14,54,29.90
2017,06,24,14,55,29.90
2017,06,24,14,56,30.00
2017,06,24,14,57,29.90
2017,06,24,14,58,29.80
2017,06,24,14,59,29.90
2017,06,24,15,00,30.00
2017,06,24,15,01,30.00
2017,06,24,15,02,30.10
2017,06,24,15,03,30.10
2017,06,24,15,04,30.10
2017,06,24,15,05,30.10
2017,06,24,15,06,30.30
2017,06,24,15,07,30.40
2017,06,24,15,08,30.40
2017,06,24,15,09,30.50
2017,06,24,15,10,30.60
2017,06,24,15,11,30.70
2017,06,24,15,12,30.80
2017,06,24,15,13,30.80
2017,06,24,15,14,30.80
2017,06,24,15,15,30.80
2017,06,24,15,16,30.90
2017,06,24,15,17,30.90
2017,06,24,15,18,31.00
2017,06,24,15,19,31.00
2017,06,24,15,20,31.00
2017,06,24,15,21,31.00
2017,06,24,15,22,31.10
2017,06,24,15,23,31.10
2017,06,24,15,24,31.10
2017,06,24,15,25,31.10
2017,06,24,15,26,31.10
2017,06,24,15,27,31.10
2017,06,24,15,28,31.10
2017,06,24,15,29,31.10
2017,06,24,15,30,31.10
2017,06,24,15,31,31.00
2017,06,24,15,32,30.90
2017,06,24,15,33,30.90
2017,06,24,15,34,30.90
2017,06,24,15,35,30.90
2017,06,24,15,36,30.90
2017,06,24,15,37,30.70
2017,06,24,15,38,30.70
2017,06,24,15,39,30.70
2017,06,24,15,40,30.70
2017,06,24,15,41,30.90
2017,06,24,15,42,30.90
2017,06,24,15,43,30.90
2017,06,24,15,44,31.00
2017,06,24,15,45,31.00
2017,06,24,15,46,31.10
2017,06,24,15,47,31.10
2017,06,24,15,48,31.00
2017,06,24,15,49,31.00
2017,06,24,15,50,31.00
2017,06,24,15,51,30.90
2017,06,24,15,52,31.00
2017,06,24,15,53,31.00
2017,06,24,15,54,30.90
2017,06,24,15,55,30.80
2017,06,24,15,56,30.80
2017,06,24,15,57,30.70
2017,06,24,15,58,30.70
2017,06,24,15,59,30.60
2017,06,24,16,00,30.40
2017,06,24,16,01,30.40
2017,06,24,16,02,30.50
2017,06,24,16,03,30.60
2017,06,24,16,04,30.70
2017,06,24,16,05,30.90
2017,06,24,16,06,31.00
2017,06,24,16,07,31.00
2017,06,24,16,08,30.90
2017,06,24,16,09,30.80
2017,06,24,16,10,30.80
2017,06,24,16,11,30.80
2017,06,24,16,12,30.80
2017,06,24,16,13,30.80
2017,06,24,16,14,30.80
2017,06,24,16,15,30.80
2017,06,24,16,16,30.80
2017,06,24,16,17,30.80
2017,06,24,16,18,30.90
2017,06,24,16,19,30.90
2017,06,24,16,20,30.90
2017,06,24,16,21,31.00
2017,06,24,16,22,31.10
2017,06,24,16,23,31.10
2017,06,24,16,24,31.20
2017,06,24,16,25,31.20
2017,06,24,16,26,31.30
2017,06,24,16,27,31.50
2017,06,24,16,28,31.60
2017,06,24,16,29,31.70
2017,06,24,16,30,31.70
2017,06,24,16,31,31.70
2017,06,24,16,32,31.70
2017,06,24,16,33,31.70
2017,06,24,16,34,31.70
2017,06,24,16,35,31.70
2017,06,24,16,36,31.80
2017,06,24,16,37,31.80
2017,06,24,16,38,31.70
2017,06,24,16,39,31.60
2017,06,24,16,40,31.60
2017,06,24,16,41,31.50
2017,06,24,16,42,31.50
2017,06,24,16,43,31.60
2017,06,24,16,44,31.50
2017,06,24,16,45,31.50
2017,06,24,16,46,31.40
2017,06,24,16,47,31.30
2017,06,24,16,48,31.30
2017,06,24,16,49,31.20
2017,06,24,16,50,31.20
2017,06,24,16,51,31.20
2017,06,24,16,52,31.20
2017,06,24,16,53,31.20
2017,06,24,16,54,31.20
2017,06,24,16,55,31.20
2017,06,24,16,56,31.10
2017,06,24,16,57,31.10
2017,06,24,16,58,31.20
2017,06,24,16,59,31.30
2017,06,24,17,00,31.40
2017,06,24,17,01,31.40
2017,06,24,17,02,31.50
2017,06,24,17,03,31.50
2017,06,24,17,04,31.60
2017,06,24,17,05,31.60
2017,06,24,17,06,31.70
2017,06,24,17,07,31.70
2017,06,24,17,08,31.70
2017,06,24,17,09,31.70
2017,06,24,17,10,31.70
2017,06,24,17,11,31.80
2017,06,24,17,12,31.70
2017,06,24,17,13,31.70
2017,06,24,17,14,31.70
2017,06,24,17,15,31.60
2017,06,24,17,16,31.50
2017,06,24,17,17,31.40
2017,06,24,17,18,31.30
2017,06,24,17,19,31.20
2017,06,24,17,20,31.10
2017,06,24,17,21,31.00